CW3742 Weather Reports


Display with metric or nautical units.
time (UTC)temp
F
wind
direction
speed
MPH
gust
MPH
rain 1hr
in
rain 24hr
in
rain mn
in
humidity
%
barometer
mb
20260505100016 48 0 3.0 8.0 0.00 0.10 0.00 70 1008.6
20260505093016 49 0 3.0 7.0 0.00 0.10 0.00 73 1007.9
20260505090016 50 0 5.0 11.0 0.00 0.10 0.00 66 1006.9
20260505083016 50 0 6.0 11.0 0.00 0.10 0.00 67 1006.6
20260505080016 49 0 5.0 9.0 0.00 0.10 0.00 72 1007.0
20260505073037 49 0 7.0 11.0 0.00 0.10 0.00 71 1007.1
20260505070016 49 0 5.0 9.0 0.00 0.10 0.00 70 1006.3
20260505063017 50 0 8.0 13.0 0.00 0.10 0.00 70 1005.9
20260505060036 51 0 8.0 12.0 0.00 0.10 0.00 65 1005.3
20260505053016 52 0 8.0 13.0 0.00 0.10 0.00 63 1004.0
20260505040016 57 0 8.0 13.0 0.00 0.10 0.10 62 1003.2
20260505033016 58 0 9.0 14.0 0.00 0.10 0.10 59 1003.5
20260505023017 62 0 9.0 16.0 0.00 0.10 0.10 57 1002.2
20260505020016 64 0 13.0 20.0 0.00 0.10 0.10 54 1001.3
20260505013036 66 0 7.0 15.0 0.00 0.10 0.10 62 1000.2
20260505010016 68 0 6.0 15.0 0.10 0.10 0.10 71 999.9
20260505003016 69 0 10.0 36.0 0.10 0.10 0.10 68 998.5
20260505000017 69 0 13.0 30.0 0.00 0.00 0.00 57 998.2
20260504233016 73 0 6.0 27.0 0.00 0.00 0.00 49 998.6
20260504230016 75 0 8.0 25.0 0.00 0.00 0.00 45 997.6
20260504223037 75 0 16.0 36.0 0.00 0.00 0.00 43 998.0
20260504220016 83 0 17.0 29.0 0.00 0.00 0.00 35 997.8
20260504213016 83 0 17.0 28.0 0.00 0.00 0.00 34 998.1
20260504210016 83 0 17.0 26.0 0.00 0.00 0.00 34 998.4
20260504203016 83 0 16.0 25.0 0.00 0.00 0.00 32 998.9
20260504200016 83 0 16.0 27.0 0.00 0.00 0.00 35 999.5
20260504193037 83 0 14.0 27.0 0.00 0.00 0.00 36 999.7
20260504190016 82 0 16.0 26.0 0.00 0.00 0.00 35 999.7
20260504183016 81 0 16.0 24.0 0.00 0.00 0.00 36 999.9
20260504180016 80 0 13.0 21.0 0.00 0.00 0.00 41 1000.0
20260504173016 79 0 15.0 23.0 0.00 0.00 0.00 43 1000.1